[[{"header":{"parameterUnit":"m.s-1","parameterCategory":1,"la1":30.2991,"la2":30.254,"lo1":-89.0895,"lo2":-89.0444,"dy":0.0017,"dx":0.0017,"nx":28,"ny":28,"refTime":"2023-10-08T03:00:00:Z","depth":0,"parameterNumber":2,"parameterNumberName":"U-component_of_WINDS"},"data":[0,0,0,0,0,0,0,0,0,0,0,0,0,0,0,0,0,0,0,0,0,0,0,0,0,0,0,0,0,0,0,0,0,0,0,0,0,0,0,0,0,0,0,0,0,0,0,0,0,0,0,0,0,0,0,0,0,0,1.4116,1.4116,0,1.4123,1.4123,1.4123,1.4083,1.4082,1.408,1.4079,1.4087,1.4088,1.4089,0,0,0,0,0,0,0,0,0,0,0,0,0,1.4069,1.407,1.4116,1.4116,1.4116,1.4123,1.4123,1.4123,1.4083,1.4082,1.408,1.4079,1.4086,1.4088,1.4089,0,0,0,0,0,0,0,0,0,0,0,0,0,1.4084,1.407,1.4116,1.4097,1.4095,1.4123,1.4123,1.4123,1.4083,1.4082,1.408,1.4078,1.4086,1.4088,1.409,1.4136,0,0,1.4096,1.4096,0,0,0,0,0,0,0,0,1.4083,1.4086,1.41,1.4098,1.4097,1.41,1.4109,1.4128,1.4084,1.4088,1.4079,1.4077,1.4093,1.4094,1.4099,1.4137,1.4137,1.4096,1.4097,1.4098,1.4098,0,0,0,0,0,0,0,1.4082,1.4085,1.4119,1.41,1.4098,1.4089,1.4089,1.4113,1.41,1.4087,1.4084,1.4086,1.4092,1.4097,1.4099,1.4137,1.4096,1.4097,1.4099,1.4099,1.4215,1.4217,0,0,0,0,0,0,1.4084,1.4085,1.4119,1.4119,1.4086,1.4091,1.4091,1.4101,1.41,1.4098,1.4087,1.4084,1.4095,1.4097,1.4099,1.4154,1.4098,1.4099,1.4101,1.4213,1.4215,1.4217,0,0,0,0,0,0,1.4083,1.4087,1.4118,1.4101,1.4104,1.4093,1.4105,1.4102,1.4108,1.41,1.4097,1.4096,1.4094,1.4096,1.4128,1.4154,1.41,1.4102,1.4211,1.4214,1.4216,1.4265,0,0,0,0,0,0,1.4082,1.4087,1.4104,1.4102,1.4106,1.4146,1.4106,1.4103,1.4111,1.4107,1.4107,1.4105,1.4093,1.4125,1.413,1.4156,1.4104,1.4208,1.4212,1.4215,1.4261,1.4269,1.4276,0,0,0,0,0,1.408,1.4117,1.4105,1.4109,1.4127,1.4148,1.415,1.4135,1.4113,1.4131,1.4126,1.4105,1.4151,1.4129,1.4133,1.416,1.4206,1.4211,1.4215,1.4257,1.4267,1.4276,0,0,0,0,0,0,1.4122,1.4116,1.4103,1.414,1.4145,1.4141,1.4162,1.4146,1.4157,1.4152,1.4133,1.4134,1.4168,1.4167,1.4143,1.4206,1.4175,1.418,1.4205,1.4215,1.4222,1.4221,1.4105,0,0,0,0,0,1.4136,1.4154,1.4148,1.4181,1.4184,1.4173,1.4182,1.417,1.4174,1.4176,1.4173,1.4178,1.4194,1.4204,1.4218,1.4261,1.4261,1.4282,1.4289,1.4296,1.43,1.4324,1.4334,1.4232,1.4231,1.4231,0,0,1.4164,1.4163,1.4175,1.419,1.4192,1.4211,1.4175,1.4196,1.4211,1.4179,1.4208,1.4207,1.4212,1.4249,1.4265,1.4249,1.4329,1.4301,1.4306,1.4308,1.433,1.4339,1.4348,1.4234,1.4234,1.4233,0,0,1.4225,1.4226,1.4255,1.4258,1.4262,1.4255,1.4262,1.4261,1.4259,1.4289,1.4266,1.4283,1.431,1.4314,1.432,1.4386,1.4367,1.4391,1.443,1.4453,1.4461,1.4468,1.4492,1.4501,1.4396,1.4396,1.4396,0,1.426,1.4287,1.4271,1.4295,1.4302,1.4276,1.4305,1.4309,1.4318,1.4323,1.4306,1.434,1.4341,1.438,1.4396,1.4402,1.4409,1.439,1.4461,1.4468,1.4475,1.4497,1.4506,1.4399,1.4398,1.4398,1.4398,0,1.433,1.435,1.4372,1.4382,1.4392,1.4418,1.4407,1.4419,1.4407,1.4402,1.4433,1.4434,1.4448,1.4457,1.4445,1.4494,1.4484,1.4465,1.4432,1.4487,1.4508,1.4517,1.4403,1.4402,1.4401,1.44,0,0,1.4415,1.4418,1.4426,1.4431,1.4434,1.4449,1.4475,1.4489,1.4501,1.4508,1.453,1.4554,1.4536,1.4543,1.4532,1.4553,1.4605,1.453,1.453,1.4544,1.466,1.4675,1.4685,1.4594,1.4595,1.4596,1.466,0,1.4475,1.4519,1.4507,1.455,1.4569,1.4545,1.4568,1.4573,1.457,1.4586,1.4582,1.46,1.4575,1.4579,1.4598,1.4595,1.4628,1.459,1.4613,1.4614,1.4612,1.4696,1.4711,1.4771,1.4668,1.4669,1.467,0,1.455,1.4562,1.4608,1.461,1.4617,1.4637,1.465,1.4665,1.4672,1.4668,1.4677,1.4662,1.4688,1.4657,1.4693,1.4668,1.4677,1.4677,1.4679,1.468,1.4645,1.4699,1.479,1.4799,1.4683,1.4682,1.4681,0,1.4609,1.4635,1.4666,1.4671,1.4674,1.4689,1.4692,1.4696,1.4706,1.4717,1.4724,1.4738,1.4746,1.4758,1.4748,1.4726,1.4786,1.4754,1.4784,1.4784,1.4797,1.4796,1.489,1.4804,1.4804,1.4804,1.4803,0,1.4676,1.4705,1.4693,1.4712,1.4744,1.473,1.4763,1.4762,1.4767,1.4786,1.4767,1.4785,1.4771,1.4789,1.4782,1.4813,1.4817,1.4815,1.4813,1.4816,1.4817,1.4821,1.4817,1.4806,1.4805,1.4805,1.4805,0,1.4746,1.4739,1.4771,1.4772,1.4773,1.4797,1.4798,1.4816,1.4813,1.4837,1.4842,1.4836,1.4856,1.4848,1.4868,1.4864,1.4904,1.4897,1.4902,1.49,1.4931,1.4928,1.503,1.5043,1.4949,1.495,1.4951,0,1.4789,1.4811,1.4815,1.4827,1.483,1.4849,1.4859,1.4847,1.4859,1.4869,1.4886,1.4905,1.4918,1.4952,1.4949,1.4966,1.4958,1.4993,1.496,1.4964,1.4958,1.4957,1.4959,1.4999,1.5,1.5001,1.5002,0,1.4867,1.4863,1.4878,1.4893,1.4906,1.4917,1.4927,1.4937,1.4926,1.494,1.4961,1.4972,1.4994,1.5012,1.5027,1.503,1.5015,1.5013,1.502,1.5024,1.5026,1.5026,1.492,1.501,1.5009,1.5008,1.5008,1.5008,1.4925,1.4943,1.495,1.4968,1.4974,1.4984,1.5001,1.5,1.5017,1.5034,1.5026,1.505,1.5057,1.5076,1.5081,1.51,1.5086,1.5098,1.51,1.5103,1.5107,1.5024,1.5103,1.5103,1.5102,1.5102,1.5102,0,1.5001,1.5005,1.5022,1.5036,1.5051,1.5036,1.5046,1.5059,1.5081,1.5089,1.5103,1.5128,1.5146,1.5146,1.5164,1.5179,1.5172,1.5184,1.5182,1.5183,1.5118,1.511,1.5189,1.5189,1.5189,1.5189,1.5189,1.5189,1.5043,1.5074,1.5071,1.5106,1.5109,1.5132,1.514,1.5149,1.5156,1.5183,1.5199,1.5199,1.5204,1.5222,1.5239,1.5239,1.5246,1.526,1.5257,1.5196,1.5188,1.518,1.5171,1.5262,1.5262,1.5321,1.5321,1.5322]},{"header":{"parameterUnit":"m.s-1","parameterCategory":1,"la1":30.2991,"la2":30.254,"lo1":-89.0895,"lo2":-89.0444,"dy":0.0017,"dx":0.0017,"nx":28,"ny":28,"refTime":"2023-10-08T03:00:00:Z","depth":0,"parameterNumber":3,"parameterNumberName":"V-component_of_WINDS"},"data":[0,0,0,0,0,0,0,0,0,0,0,0,0,0,0,0,0,0,0,0,0,0,0,0,0,0,0,0,0,0,0,0,0,0,0,0,0,0,0,0,0,0,0,0,0,0,0,0,0,0,0,0,0,0,0,0,0,0,-2.2731,-2.2732,0,-2.2832,-2.2833,-2.2834,-2.2887,-2.2887,-2.2887,-2.2887,-2.2989,-2.2991,-2.2994,0,0,0,0,0,0,0,0,0,0,0,0,0,-2.258,-2.2583,-2.273,-2.2732,-2.2733,-2.2832,-2.2833,-2.2834,-2.2887,-2.2887,-2.2887,-2.2887,-2.2988,-2.2991,-2.2994,0,0,0,0,0,0,0,0,0,0,0,0,0,-2.266,-2.2584,-2.273,-2.2771,-2.2776,-2.2831,-2.2833,-2.2835,-2.2887,-2.2887,-2.2887,-2.2887,-2.2987,-2.2991,-2.2994,-2.3016,0,0,-2.3006,-2.3008,0,0,0,0,0,0,0,0,-2.2655,-2.2665,-2.2764,-2.2768,-2.2774,-2.2847,-2.2817,-2.2896,-2.2887,-2.2845,-2.2887,-2.2887,-2.2941,-2.2949,-2.2968,-2.3021,-2.3025,-2.3007,-2.3009,-2.3011,-2.3012,0,0,0,0,0,0,0,-2.265,-2.2661,-2.2771,-2.2765,-2.2771,-2.2784,-2.2795,-2.2832,-2.2891,-2.2848,-2.2852,-2.2864,-2.2944,-2.2964,-2.297,-2.3027,-2.3007,-2.301,-2.3013,-2.3014,-2.3103,-2.3103,0,0,0,0,0,0,-2.2638,-2.2656,-2.2767,-2.2774,-2.2714,-2.2786,-2.2799,-2.2823,-2.2891,-2.2901,-2.2864,-2.2866,-2.2957,-2.2966,-2.2974,-2.3004,-2.3011,-2.3015,-2.3017,-2.3103,-2.3103,-2.3103,0,0,0,0,0,0,-2.2635,-2.2647,-2.2763,-2.2716,-2.2732,-2.2789,-2.2815,-2.2825,-2.2845,-2.2902,-2.2913,-2.2873,-2.2957,-2.2969,-2.3006,-2.3009,-2.3016,-2.302,-2.3103,-2.3103,-2.3103,-2.3065,0,0,0,0,0,0,-2.263,-2.2646,-2.2655,-2.2716,-2.2734,-2.2794,-2.2816,-2.2827,-2.2852,-2.2856,-2.2914,-2.2924,-2.2958,-2.2999,-2.3009,-2.3014,-2.3023,-2.3103,-2.3103,-2.3103,-2.3066,-2.3063,-2.3061,0,0,0,0,0,-2.2625,-2.264,-2.2656,-2.2669,-2.2747,-2.2794,-2.2804,-2.2844,-2.2852,-2.2862,-2.2898,-2.2922,-2.3007,-2.3003,-2.3015,-2.302,-2.3103,-2.3103,-2.3103,-2.3067,-2.3064,-2.3061,0,0,0,0,0,0,-2.2578,-2.2649,-2.2667,-2.2702,-2.2742,-2.2802,-2.2816,-2.2839,-2.2877,-2.2879,-2.2926,-2.2939,-2.2971,-2.3,-2.2994,-2.3045,-2.3057,-2.306,-2.3026,-2.3023,-2.3021,-2.3013,-2.3026,0,0,0,0,0,-2.2571,-2.2604,-2.2664,-2.2689,-2.2708,-2.2758,-2.278,-2.2808,-2.285,-2.2867,-2.2906,-2.2946,-2.2981,-2.3004,-2.304,-2.307,-2.3083,-2.308,-2.3077,-2.3075,-2.3077,-2.3095,-2.3094,-2.3104,-2.3104,-2.3104,0,0,-2.2559,-2.2602,-2.2619,-2.2681,-2.2715,-2.2747,-2.2772,-2.2805,-2.2829,-2.2871,-2.2909,-2.2939,-2.2987,-2.302,-2.3037,-2.3045,-2.3077,-2.3075,-2.3073,-2.3076,-2.3095,-2.3094,-2.3093,-2.3104,-2.3104,-2.3104,0,0,-2.2553,-2.2588,-2.2614,-2.2647,-2.2698,-2.2731,-2.2737,-2.2794,-2.2816,-2.2855,-2.2887,-2.2916,-2.2976,-2.3009,-2.3033,-2.3039,-2.3062,-2.3049,-2.3036,-2.3053,-2.3053,-2.3052,-2.3054,-2.3054,-2.305,-2.305,-2.305,0,-2.253,-2.258,-2.2623,-2.2654,-2.268,-2.2721,-2.2747,-2.2776,-2.2836,-2.2853,-2.286,-2.2937,-2.2972,-2.3014,-2.3015,-2.3033,-2.3041,-2.3042,-2.3049,-2.3049,-2.305,-2.3052,-2.3053,-2.3048,-2.3048,-2.3048,-2.3049,0,-2.2551,-2.2585,-2.2599,-2.2656,-2.2683,-2.2711,-2.2758,-2.2781,-2.2805,-2.2838,-2.2876,-2.2919,-2.2965,-2.2976,-2.3001,-2.3022,-2.3025,-2.304,-2.3054,-2.3046,-2.3049,-2.3051,-2.3045,-2.3046,-2.3047,-2.3047,0,0,-2.2518,-2.2598,-2.2603,-2.2629,-2.2688,-2.2715,-2.2744,-2.2789,-2.2807,-2.2847,-2.2873,-2.2923,-2.2937,-2.2965,-2.2993,-2.3008,-2.301,-2.3022,-2.3024,-2.3018,-2.3036,-2.3024,-2.3024,-2.3025,-2.3026,-2.3026,-2.3032,0,-2.252,-2.2575,-2.2615,-2.2655,-2.2686,-2.2725,-2.2751,-2.2789,-2.282,-2.2851,-2.2885,-2.2919,-2.2936,-2.2953,-2.297,-2.3006,-2.3014,-2.3006,-2.305,-2.3051,-2.3037,-2.3026,-2.3013,-2.3017,-2.3033,-2.3034,-2.3034,0,-2.253,-2.2569,-2.2612,-2.2667,-2.2682,-2.2704,-2.2748,-2.2777,-2.2822,-2.2843,-2.2874,-2.2903,-2.2935,-2.2945,-2.299,-2.2984,-2.3004,-2.3025,-2.3026,-2.3031,-2.3042,-2.3031,-2.3019,-2.3019,-2.3036,-2.3036,-2.3036,0,-2.2501,-2.2564,-2.2598,-2.262,-2.2685,-2.27,-2.2727,-2.2772,-2.2796,-2.2835,-2.2851,-2.2892,-2.2915,-2.2946,-2.2985,-2.2989,-2.3026,-2.304,-2.3045,-2.3044,-2.3051,-2.305,-2.3042,-2.3064,-2.3064,-2.3064,-2.3064,0,-2.25,-2.2524,-2.2586,-2.2607,-2.2636,-2.2681,-2.2708,-2.2739,-2.2778,-2.2805,-2.2841,-2.2866,-2.2916,-2.2947,-2.2978,-2.3011,-2.3021,-2.3038,-2.3046,-2.3035,-2.3033,-2.3049,-2.305,-2.3064,-2.3064,-2.3064,-2.3064,0,-2.2473,-2.2515,-2.2555,-2.2613,-2.2629,-2.2647,-2.2697,-2.2719,-2.2751,-2.2785,-2.2796,-2.2847,-2.2885,-2.2928,-2.298,-2.3001,-2.3031,-2.3043,-2.3016,-2.3021,-2.3023,-2.3022,-2.3025,-2.3028,-2.3047,-2.3047,-2.3047,0,-2.2469,-2.2489,-2.255,-2.2571,-2.2597,-2.2631,-2.2656,-2.27,-2.2725,-2.2777,-2.2792,-2.2833,-2.2868,-2.2927,-2.2968,-2.3008,-2.3021,-2.3019,-2.3027,-2.3016,-2.3021,-2.302,-2.3022,-2.3017,-2.3016,-2.3016,-2.3016,0,-2.2457,-2.2477,-2.2512,-2.2555,-2.2584,-2.2619,-2.2656,-2.2671,-2.2723,-2.2748,-2.2788,-2.2815,-2.2869,-2.2909,-2.2954,-2.2982,-2.3007,-2.3013,-2.3016,-2.3005,-2.2989,-2.2998,-2.301,-2.3013,-2.3013,-2.3013,-2.3013,-2.3013,-2.2442,-2.2461,-2.2507,-2.2545,-2.2577,-2.2611,-2.2634,-2.2669,-2.2703,-2.275,-2.2774,-2.2814,-2.2857,-2.2921,-2.2948,-2.298,-2.2988,-2.2992,-2.2994,-2.2994,-2.2991,-2.2984,-2.2988,-2.2988,-2.2988,-2.2988,-2.2988,0,-2.2432,-2.2463,-2.2498,-2.2548,-2.2577,-2.2599,-2.2641,-2.2664,-2.2698,-2.2737,-2.2771,-2.2816,-2.2855,-2.29,-2.2942,-2.2958,-2.2971,-2.2968,-2.2967,-2.2973,-2.2981,-2.2974,-2.2957,-2.2957,-2.2957,-2.2957,-2.2957,-2.2957,-2.243,-2.2465,-2.249,-2.254,-2.2571,-2.261,-2.2632,-2.2663,-2.2694,-2.2743,-2.2776,-2.2805,-2.2846,-2.2892,-2.2928,-2.2941,-2.2954,-2.2948,-2.2963,-2.297,-2.2972,-2.2975,-2.2969,-2.295,-2.295,-2.2952,-2.2952,-2.2952]}]]